[Date Prev][Date Next][Thread Prev][Thread Next] - [Date Index][Thread Index][Author Index]

2 Line ISS Keps 9-4



ISS
1 25544U 98067A   04248.40521507  .00056719  00000-0  47649-3 0  6068
2 25544  51.6352 281.3620 0005429 109.6429 349.9763 15.69315159330762
----
Via the sarex mailing list at AMSAT.ORG courtesy of AMSAT-NA.
To unsubscribe, send "unsubscribe sarex" to Majordomo@amsat.org



AMSAT Top AMSAT Home